Regional Weather Roundup
Issued by NWS

Home | Current Version | Previous Version | Graphics & Text | Print | Product List | Glossary On
Versions: 1 2 3 4 5 6 7 8 9 10 11 12 13 14 15 16 17 18 19 20 21 22 23 24 25 26 27 28 29 30 31 32 33 34 35 36 37 38 39 40 41 42 43 44 45 46 47 48 49 50
000
ASUS45 KBOU 222207
RWRCO

WEATHER ROUNDUP FOR COLORADO
NATIONAL WEATHER SERVICE DENVER/BOULDER CO
400 PM MDT FRI MAY 22 2015

NOTE: "FAIR" INDICATES FEW OR NO CLOUDS BELOW 12000 FEET WITH NO
SIGNIFICANT WEATHER AND/OR OBSTRUCTIONS TO VISIBILITY.

COZ001>005-013-030-031-222300-
...NORTHWEST COLORADO...

CITY           SKY/WX    TMP DP  RH WIND       PRES   REMARKS
CRAIG          TSTM      47  39  74 W12G32    30.01R
HAYDEN         PTSUNNY   46  34  61 S17G38    30.00R THUNDER
MEEKER         CLOUDY    55  43  63 MISG      29.97F
MOUNT WERNER   NOT AVBL
STEAMBOAT SPGS MOSUNNY   56  38  51 CALM      29.97F
WALDEN         CLOUDY    52  32  46 SW12G17   30.01F
$$

COZ006>008-011-222300-
...WEST CENTRAL VALLEYS...

CITY           SKY/WX    TMP DP  RH WIND       PRES   REMARKS
GRAND JUNCTION PTSUNNY   64  36  35 NW6       29.88R
MONTROSE       PTSUNNY   69  28  21 S8        29.91S
EAGLE          MOSUNNY   61  39  44 VRB7      29.96F
RIFLE          PTSUNNY   61  37  41 SW12      29.94S
DELTA          PTSUNNY   70  35  28 MISG      29.88F
NUCLA          CLOUDY    63  32  31 S30G38    29.96R
$$

COZ017>023-064>068-222300-
...SOUTHWEST COLORADO...

CITY           SKY/WX    TMP DP  RH WIND       PRES   REMARKS
DURANGO        TSTM      57  34  41 S16G28    30.00S
CORTEZ         TSTM      56  43  61 NW6       29.95F
PAGOSA SPRINGS PTSUNNY   53  36  53 NE7       30.05F THUNDER
TELLURIDE      CLOUDY    48  31  50 S17G23    30.09F
WOLF CREEK PAS NOT AVBL
$$

COZ009-010-012-014-032>034-037-058>063-222300-
...CENTRAL COLORADO...

CITY           SKY/WX    TMP DP  RH WIND       PRES   REMARKS
ASPEN          PTSUNNY   49  35  58 S29G47    30.01R
BUENA VISTA    PTSUNNY   56  29  35 SE10      30.02F
COPPER MTN     MOSUNNY   41  21  45 SW9       30.18F
BERTHOUD PASS  HAZE      28  21  74 W12G26    30.21R VSB<1/4 WCI  18
COTTONWOOD PAS PTSUNNY   50  27  40 S18G26    30.10F
GUNNISON       PTSUNNY   61  21  21 CALM      29.99F
KREMMLING      MOSUNNY   59  30  33 SW14      29.99F
LEADVILLE      CLOUDY    46  24  42 S10G20    30.06F
MONARCH PASS   CLOUDY    36  23  60 S15       30.29S
SALIDA         PTSUNNY   60  32  35 S18G26    30.07S
SUNLIGHT       PTSUNNY   41  36  81 SW3       30.16R
WILKERSON PASS CLOUDY    37  30  75 SW5       30.19S
$$

COZ069>075-222300-
...SAN LUIS VALLEY/SANGRE DE CRISTO MOUNTAINS...

CITY           SKY/WX    TMP DP  RH WIND       PRES   REMARKS
ALAMOSA        PTSUNNY   62  32  32 S23G30    30.03F
LA VETA PASS   MOSUNNY  N/A N/A N/A MISG      30.15F
SAGUACHE       CLOUDY    59  28  31 S12G21    30.03S
$$

COZ035-036-038>040-222300-
...NORTHERN COLORADO FRONT RANGE...

CITY           SKY/WX    TMP DP  RH WIND       PRES   REMARKS
DENVER INTL AP PTSUNNY   56  46  69 NE8       29.98F
DMNS CITY PARK   N/A     56  44  63 NE9       29.97S
AURORA         PTSUNNY   59  46  62 NE8       29.98F
FRONT RANGE AP NOT AVBL
ERIE MUNI ARPT CLOUDY    55  46  73 E3        29.98F
BOULDER MUN AP CLOUDY    52  46  82 CALM      29.98S
CENTENNIAL     PTSUNNY   58  45  62 N13       29.98S
BROOMFIELD     PTSUNNY   54  46  76 NE6       29.99F
FORT COLLINS   CLOUDY    52  46  82 E8        30.01S
LONGMONT       CLOUDY    56  47  74 NE7       30.01R
$$

COZ041-046-047-076>085-087-088-222300-
...PIKES PEAK/PALMER DIVIDE AND SOUTHERN FOOTHILLS...

CITY           SKY/WX    TMP DP  RH WIND       PRES   REMARKS
COLO. SPRINGS  PTSUNNY   65  41  41 S15       29.96F
A. F. ACADEMY  PTSUNNY   59  43  55 S8G20     29.98S
ELLICOTT       NOT AVBL
FALCON         MOSUNNY   61  40  46 S15       30.00F
FORT CARSON    MOSUNNY   67  45  45 S15       29.93F
LIMON          LGT RAIN  56  50  80 S3        29.98S
MONUMENT HILL  NOT AVBL
TRINIDAD       PTSUNNY   70  48  45 S24       29.94F
$$

COZ042>045-048>051-090-091-222300-
...NORTHEAST COLORADO...

CITY           SKY/WX    TMP DP  RH WIND       PRES   REMARKS
GREELEY ARPT   CLOUDY    54  45  71 NE5       29.99F
AKRON          CLOUDY    55  50  83 E9        29.98F
BURLINGTON     PTSUNNY   60  53  77 SE24      29.97S
WRAY           CLOUDY   N/A N/A N/A E13       30.01F
STERLING       CLOUDY    52  48  87 E9        30.00S
HOLYOKE        NOT AVBL
FORT MORGAN    PTSUNNY   55  49  79 NE13      29.99F
$$

COZ086-089-092>099-222300-
...SOUTHEAST COLORADO...

CITY           SKY/WX    TMP DP  RH WIND       PRES   REMARKS
PUEBLO         SUNNY     71  48  43 E18       29.88F
LA JUNTA       SUNNY     74  49  41 E10       29.90F
LAMAR          MOSUNNY   75  51  43 S14       29.89F
SPRINGFIELD      N/A     68  52  56 S23G33    29.97F
$$



USA.gov is the U.S. government's official web portal to all federal, state and local government web resources and services.